Location: Unspecified
(0.0000°N, 0.0000°E)
Time: 01:23:25
(UTC+00:00)

STARLINK-31884 - Visible Passes

Search period start: 15 December 2025 00:00
Search period end: 25 December 2025 00:00
Orbit: 482 x 484 km, 43.0° (Epoch: 13 December)

Date Brightness Start Highest point End Pass type
(mag) Time Alt. Az. Time Alt. Az. Time Alt. Az.
15 Dec 3.2 05:00:21 10° SW 05:04:07 78° NW 05:07:52 10° NE visible
16 Dec 3.2 04:34:13 24° SW 04:36:22 82° NW 04:40:08 10° NE visible
17 Dec 5.1 04:10:45 24° NE 04:10:45 24° NE 04:12:23 10° NE visible
